Location: Freistadt
(48.5112°N, 14.5013°E)
Time: 09:36:58
(UTC+02:00)

MOZHAYETS 4 - Pass Details

Date: 31 March 2023
Orbit: 657 x 675 km, 98.2° (Epoch: 03 June)

Event Time Altitude Azimuth Distance (km) Brightness Sun altitude
Exits shadow 02:41:36 27° 49° (NE) 1,274 9.6 -33.5°
Drops below altitude 10° 02:44:48 10° 6° (N) 2,089 11.0 -33.3°
Sets 02:47:16 0° 355° (N) 3,009 11.8 -33.1°
